Rapid City, SD

8:51 AM MST on December 08, 2016 (GMT -0700)
Rapid City Regional

Weather History for KRAP - April, 2014

Change the Weather History Date:

Tuesday, April 15, 2014

  Actual Average Record
Temperature  
Mean Temperature 42 °F 45 °F  
Max Temperature 65 °F 58 °F 85 °F (2008)
Min Temperature 18 °F 32 °F 15 °F (1986)
Degree Days  
Heating Degree Days 23 20  
Month to date heating degree days 385 337  
Since 1 July heating degree days 7035 6465  
Cooling Degree Days 0 0  
Month to date cooling degree days 0 0  
Year to date cooling degree days 0 0  
Moisture  
Dew Point 22 °F    
Average Humidity 48    
Maximum Humidity 77    
Minimum Humidity 18    
Precipitation  
Precipitation 0.02 in 0.06 in 1.00 in (2000)
Month to date precipitation 0.54 0.69  
Year to date precipitation 2.12 2.36  
Snow  
Snow 0.00 in 0.30 in 5.00 in (2000)
Month to date snowfall 6.0 4.5  
Since 1 July snowfall 63.4 36.6  
Snow Depth 0.00 in    
Sea Level Pressure  
Sea Level Pressure 29.75 in    
Wind  
Wind Speed 9 mph (ESE)    
Max Wind Speed 33 mph    
Max Gust Speed 40 mph    
Visibility 10 miles    
Events Rain    
T = Trace of Precipitation, MM = Missing Value Source: NWS Daily Summary

Daily Weather History Graph

Daily Weather History Graph

Search for Another Location

Airport or City:

Trip Planner

Search our weather history database for the weather conditions in past years. The results will help you decide how hot, cold, wet, or windy it might be!

Date:

Astronomy

Apr. 15, 2014 Rise Set
Actual Time 6:08 AM MDT 7:36 PM MDT
Civil Twilight 5:38 AM MDT 8:06 PM MDT
Nautical Twilight 5:02 AM MDT 8:43 PM MDT
Astronomical Twilight 4:23 AM MDT 9:22 PM MDT
Moon 8:21 PM MDT (4/15) 6:17 AM MDT (4/15)
Length of Visible Light 14h 27m
Length of Day
13h 27m
Full, 100% of the Moon is Illuminated
Apr 15
Full
Apr 22
Last Quarter
Apr 29
New
May 6
First Quarter
May 14
Full

Hourly Weather History & Observations

Time (MDT) Temp. Windchill Dew Point Humidity Pressure Visibility Wind Dir Wind Speed Gust Speed Precip Events Conditions
12:52 AM 19.9 °F 13.4 °F 10.9 °F 68% 30.10 in 10.0 mi ESE 4.6 mph - N/A   Clear
1:52 AM 19.9 °F 12.1 °F 10.9 °F 68% 30.06 in 10.0 mi SE 5.8 mph - N/A   Clear
2:52 AM 19.0 °F 13.9 °F 10.9 °F 71% 30.02 in 10.0 mi SSE 3.5 mph - N/A   Clear
3:52 AM 19.0 °F 12.3 °F 10.0 °F 68% 29.98 in 10.0 mi SE 4.6 mph - N/A   Clear
4:52 AM 18.0 °F 12.7 °F 10.9 °F 74% 29.96 in 10.0 mi ESE 3.5 mph - N/A   Clear
5:52 AM 19.0 °F 13.9 °F 12.0 °F 74% 29.92 in 10.0 mi ESE 3.5 mph - N/A   Clear
6:52 AM 21.9 °F 17.2 °F 15.1 °F 75% 29.89 in 10.0 mi ESE 3.5 mph - N/A   Clear
7:52 AM 27.0 °F - 19.0 °F 72% 29.88 in 10.0 mi Calm Calm - N/A   Clear
8:52 AM 37.0 °F 34.5 °F 21.9 °F 54% 29.85 in 10.0 mi SSE 3.5 mph - N/A   Clear
9:52 AM 44.1 °F 40.8 °F 24.1 °F 45% 29.83 in 10.0 mi SSE 5.8 mph - N/A   Clear
10:52 AM 52.0 °F - 24.1 °F 34% 29.78 in 10.0 mi SE 6.9 mph - N/A   Clear
11:52 AM 57.0 °F - 23.0 °F 27% 29.75 in 10.0 mi SE 9.2 mph - N/A   Partly Cloudy
12:52 PM 62.1 °F - 21.0 °F 21% 29.70 in 10.0 mi SSE 8.1 mph - N/A   Clear
1:52 PM 64.0 °F - 19.0 °F 18% 29.66 in 10.0 mi Calm Calm - N/A   Clear
2:52 PM 64.4 °F - 19.4 °F 18% 29.59 in 10.0 mi Variable 4.6 mph - N/A   Partly Cloudy
3:52 PM 63.0 °F - 19.0 °F 18% 29.60 in 10.0 mi Calm Calm - N/A   Clear
4:52 PM 63.0 °F - 19.9 °F 19% 29.58 in 10.0 mi ESE 3.5 mph - N/A   Clear
5:52 PM 61.0 °F - 28.9 °F 30% 29.57 in 10.0 mi SE 4.6 mph - N/A   Overcast
6:52 PM 57.9 °F - 26.1 °F 30% 29.57 in 10.0 mi North 16.1 mph - N/A   Overcast
7:52 PM 55.0 °F - 28.0 °F 35% 29.56 in 10.0 mi NNE 8.1 mph - N/A   Partly Cloudy
8:52 PM 53.1 °F - 32.0 °F 45% 29.57 in 10.0 mi NNW 19.6 mph - N/A   Mostly Cloudy
9:52 PM 52.0 °F - 33.1 °F 49% 29.57 in 10.0 mi NNW 25.3 mph 33.4 mph N/A   Overcast
10:52 PM 46.9 °F - 37.0 °F 68% 29.59 in 10.0 mi NNW 29.9 mph 38.0 mph N/A   Overcast
11:52 PM 43.0 °F 34.2 °F 39.0 °F 86% 29.60 in 10.0 mi NNW 20.7 mph - 0.00 in Rain Light Rain